• In Russia
  • List of Countries
  • For 7 days
  • Water Temperature
  • Satellite Maps
  • Weather Map
  • Weather Widgets
  • user-avatar
    Login

    Hourly Weather Newcastle

    Today, 29 March, Wednesday

    Time Temperature Precipitation Wind Pressure Humidity
    00:00 +22°C° 0 mm 1 mps 759 mmHg 98%
    01:00 +22°C° 0 mm 1 mps 758 mmHg 99%
    02:00 +20°C° 0 mm 0 mps 758 mmHg 98%
    03:00 +20°C° 0 mm 0 mps 758 mmHg 98%
    04:00 +20°C° 0 mm 0 mps 758 mmHg 98%
    05:00 +23°C° 0 mm 1 mps 758 mmHg 97%
    06:00 +23°C° 0 mm 1 mps 758 mmHg 96%
    07:00 +24°C° 0 mm 1 mps 758 mmHg 95%
    08:00 +26°C° 0 mm 1 mps 758 mmHg 84%
    09:00 +29°C° 0 mm 1 mps 758 mmHg 73%
    10:00 +31°C° 0 mm 2 mps 758 mmHg 61%
    11:00 +34°C° 0 mm 2 mps 757 mmHg 55%
    12:00 +36°C° 0 mm 3 mps 757 mmHg 49%
    13:00 +37°C° 0 mm 3 mps 756 mmHg 43%
    14:00 +37°C° 0 mm 4 mps 756 mmHg 45%
    15:00 +36°C° 0 mm 4 mps 755 mmHg 46%
    16:00 +36°C° 0 mm 5 mps 755 mmHg 47%
    17:00 +34°C° 0 mm 5 mps 755 mmHg 55%
    18:00 +32°C° 0 mm 5 mps 755 mmHg 62%
    19:00 +29°C° 0 mm 5 mps 755 mmHg 70%
    20:00 +28°C° 0 mm 5 mps 755 mmHg 73%
    21:00 +27°C° 0 mm 5 mps 756 mmHg 75%
    22:00 +26°C° 0 mm 5 mps 756 mmHg 78%
    23:00 +26°C° 0 mm 4 mps 755 mmHg 77%

    Tomorrow, 30 March, Thursday

    Time Temperature Precipitation Wind Pressure Humidity
    00:00 +26°C° 0 mm 4 mps 755 mmHg 76%
    01:00 +26°C° 0 mm 4 mps 755 mmHg 75%
    02:00 +26°C° 0.2 mm 4 mps 755 mmHg 78%
    03:00 +25°C° 0.2 mm 4 mps 755 mmHg 80%
    04:00 +25°C° 0.2 mm 3 mps 755 mmHg 82%
    05:00 +24°C° 0.6 mm 3 mps 755 mmHg 86%
    06:00 +24°C° 0.6 mm 3 mps 755 mmHg 90%
    07:00 +23°C° 0.6 mm 2 mps 755 mmHg 94%
    08:00 +23°C° 1.9 mm 2 mps 755 mmHg 95%
    09:00 +24°C° 1.9 mm 2 mps 755 mmHg 96%
    10:00 +24°C° 1.9 mm 1 mps 756 mmHg 96%
    11:00 +24°C° 2.5 mm 1 mps 755 mmHg 96%
    12:00 +24°C° 2.5 mm 2 mps 754 mmHg 96%
    13:00 +24°C° 2.5 mm 2 mps 754 mmHg 97%
    14:00 +24°C° 0.8 mm 3 mps 754 mmHg 96%
    15:00 +22°C° 0.8 mm 4 mps 753 mmHg 95%
    16:00 +22°C° 0.8 mm 5 mps 753 mmHg 95%
    17:00 +21°C° 2.6 mm 6 mps 754 mmHg 95%
    18:00 +20°C° 2.6 mm 8 mps 754 mmHg 96%
    19:00 +18°C° 2.6 mm 10 mps 755 mmHg 96%
    20:00 +18°C° 1 mm 10 mps 756 mmHg 96%
    21:00 +18°C° 1 mm 9 mps 757 mmHg 96%
    22:00 +17°C° 1 mm 9 mps 758 mmHg 97%
    23:00 +17°C° 0.3 mm 9 mps 758 mmHg 95%

    Day after tomorrow, 31 March, Friday

    Time Temperature Precipitation Wind Pressure Humidity
    00:00 +17°C° 0.3 mm 9 mps 758 mmHg 94%
    01:00 +17°C° 0.3 mm 9 mps 758 mmHg 93%
    02:00 +17°C° 0.1 mm 9 mps 758 mmHg 90%
    03:00 +17°C° 0.1 mm 8 mps 758 mmHg 88%
    04:00 +16°C° 0.1 mm 8 mps 758 mmHg 86%
    05:00 +16°C° 0.2 mm 8 mps 758 mmHg 85%
    06:00 +16°C° 0.2 mm 8 mps 759 mmHg 84%
    07:00 +16°C° 0.2 mm 8 mps 759 mmHg 83%
    08:00 +17°C° 0.1 mm 8 mps 760 mmHg 78%
    09:00 +18°C° 0.1 mm 8 mps 760 mmHg 74%
    10:00 +18°C° 0.1 mm 8 mps 761 mmHg 69%
    11:00 +20°C° 0.2 mm 7 mps 760 mmHg 68%
    12:00 +20°C° 0.2 mm 7 mps 760 mmHg 67%
    13:00 +20°C° 0.2 mm 7 mps 760 mmHg 67%
    14:00 +21°C° 0.1 mm 7 mps 760 mmHg 66%
    15:00 +21°C° 0.1 mm 7 mps 760 mmHg 65%
    16:00 +21°C° 0.1 mm 7 mps 760 mmHg 65%
    17:00 +20°C° 0 mm 6 mps 760 mmHg 69%
    18:00 +19°C° 0 mm 6 mps 761 mmHg 73%
    19:00 +17°C° 0 mm 5 mps 761 mmHg 78%
    20:00 +17°C° 0 mm 5 mps 762 mmHg 80%
    21:00 +16°C° 0 mm 5 mps 762 mmHg 83%
    22:00 +17°C° 0 mm 4 mps 762 mmHg 85%
    23:00 +15°C° 0 mm 4 mps 762 mmHg 87%

    1 April, Saturday

    Time Temperature Precipitation Wind Pressure Humidity
    00:00 +15°C° 0 mm 4 mps 762 mmHg 89%
    01:00 +14°C° 0 mm 4 mps 761 mmHg 90%
    02:00 +14°C° 0 mm 4 mps 761 mmHg 91%
    03:00 +14°C° 0 mm 4 mps 761 mmHg 92%
    04:00 +13°C° 0 mm 4 mps 761 mmHg 93%
    05:00 +13°C° 0 mm 4 mps 762 mmHg 91%
    06:00 +14°C° 0 mm 3 mps 762 mmHg 90%
    07:00 +14°C° 0 mm 3 mps 762 mmHg 88%
    08:00 +17°C° 0 mm 3 mps 762 mmHg 78%
    09:00 +20°C° 0 mm 3 mps 763 mmHg 68%
    10:00 +22°C° 0 mm 3 mps 763 mmHg 59%
    11:00 +25°C° 0 mm 3 mps 762 mmHg 53%
    12:00 +26°C° 0 mm 3 mps 762 mmHg 47%
    13:00 +27°C° 0 mm 2 mps 761 mmHg 41%
    14:00 +27°C° 0 mm 2 mps 761 mmHg 43%
    15:00 +26°C° 0 mm 2 mps 761 mmHg 45%
    16:00 +26°C° 0 mm 3 mps 761 mmHg 47%
    17:00 +22°C° 0 mm 3 mps 762 mmHg 60%
    18:00 +20°C° 0 mm 3 mps 762 mmHg 72%
    19:00 +18°C° 0 mm 3 mps 763 mmHg 85%
    20:00 +17°C° 0 mm 3 mps 763 mmHg 88%
    21:00 +16°C° 0 mm 3 mps 764 mmHg 92%
    22:00 +14°C° 0 mm 3 mps 764 mmHg 95%
    23:00 +14°C° 0.1 mm 3 mps 765 mmHg 94%

    2 April, Sunday

    Time Temperature Precipitation Wind Pressure Humidity
    00:00 +14°C° 0.1 mm 3 mps 765 mmHg 93%
    01:00 +14°C° 0.1 mm 3 mps 765 mmHg 93%
    02:00 +16°C° 0.2 mm 3 mps 765 mmHg 93%
    03:00 +16°C° 0.2 mm 3 mps 765 mmHg 93%
    04:00 +15°C° 0.2 mm 4 mps 765 mmHg 94%
    05:00 +15°C° 0.4 mm 4 mps 766 mmHg 94%
    06:00 +17°C° 0.4 mm 4 mps 766 mmHg 95%
    07:00 +17°C° 0.4 mm 4 mps 767 mmHg 95%
    08:00 +17°C° 0.8 mm 5 mps 768 mmHg 94%
    09:00 +17°C° 0.8 mm 5 mps 768 mmHg 93%
    10:00 +19°C° 0.8 mm 5 mps 768 mmHg 92%
    11:00 +19°C° 0.7 mm 5 mps 768 mmHg 93%
    12:00 +18°C° 0.7 mm 4 mps 768 mmHg 94%
    13:00 +18°C° 0.7 mm 4 mps 768 mmHg 95%
    14:00 +18°C° 0.6 mm 4 mps 768 mmHg 94%
    15:00 +19°C° 0.6 mm 4 mps 768 mmHg 93%
    16:00 +19°C° 0.6 mm 5 mps 768 mmHg 93%
    17:00 +18°C° 0.5 mm 4 mps 769 mmHg 94%
    18:00 +18°C° 0.5 mm 4 mps 769 mmHg 95%
    19:00 +17°C° 0.5 mm 4 mps 770 mmHg 96%
    20:00 +17°C° 0.6 mm 4 mps 770 mmHg 96%
    21:00 +15°C° 0.6 mm 4 mps 770 mmHg 96%
    22:00 +15°C° 0.6 mm 4 mps 770 mmHg 96%
    23:00 +15°C° 0.6 mm 4 mps 770 mmHg 97%

    3 April, Monday

    Time Temperature Precipitation Wind Pressure Humidity
    00:00 +15°C° 0.6 mm 4 mps 770 mmHg 97%
    01:00 +14°C° 0.6 mm 4 mps 770 mmHg 97%
    02:00 +14°C° 0.6 mm 4 mps 770 mmHg 97%
    03:00 +14°C° 0.6 mm 4 mps 770 mmHg 97%
    04:00 +14°C° 0.6 mm 4 mps 770 mmHg 97%
    05:00 +15°C° 0.6 mm 4 mps 770 mmHg 97%
    06:00 +15°C° 0.6 mm 4 mps 770 mmHg 97%
    07:00 +15°C° 0.6 mm 4 mps 771 mmHg 96%
    08:00 +17°C° 0.6 mm 4 mps 771 mmHg 93%
    09:00 +18°C° 0.6 mm 4 mps 771 mmHg 90%
    10:00 +19°C° 0.6 mm 4 mps 771 mmHg 86%
    11:00 +20°C° 0.6 mm 4 mps 771 mmHg 84%
    12:00 +20°C° 0.6 mm 4 mps 770 mmHg 82%
    13:00 +20°C° 0.6 mm 4 mps 770 mmHg 80%
    14:00 +20°C° 0.4 mm 4 mps 770 mmHg 78%
    15:00 +20°C° 0.4 mm 4 mps 770 mmHg 77%
    16:00 +20°C° 0.4 mm 4 mps 770 mmHg 75%
    17:00 +19°C° 0.4 mm 4 mps 770 mmHg 80%
    18:00 +17°C° 0.4 mm 4 mps 770 mmHg 85%
    19:00 +15°C° 0.4 mm 4 mps 771 mmHg 90%
    20:00 +14°C° 0.4 mm 4 mps 771 mmHg 92%
    21:00 +14°C° 0.4 mm 4 mps 771 mmHg 94%
    22:00 +14°C° 0.4 mm 3 mps 771 mmHg 95%
    23:00 +13°C° 0.6 mm 3 mps 770 mmHg 96%
    Show more